Time,TemperatureF,DewpointF,PressureIn,WindDirection,WindDirectionDegrees,WindSpeedMPH,WindSpeedGustMPH,Humidity,HourlyPrecipIn,Conditions,Clouds,dailyrainin,SoftwareType,DateUTC
2013-11-20 00:00:00,49.3,19.9,28.73,SW,230,0.0,0.0,31,0.00,,OVC075,0.00,VWS V14.01,2013-11-20 06:00:00,
2013-11-20 00:15:00,49.1,19.8,28.70,WSW,238,0.0,0.0,31,0.00,,BKN250,0.00,VWS V14.01,2013-11-20 06:15:00,
2013-11-20 00:30:00,48.9,19.6,28.70,SW,229,0.0,0.0,31,0.00,,BKN250,0.00,VWS V14.01,2013-11-20 06:30:00,
2013-11-20 00:45:00,48.6,20.1,28.70,SW,227,0.0,0.0,32,0.00,,BKN250,0.00,VWS V14.01,2013-11-20 06:45:00,
2013-11-20 01:00:00,48.6,20.1,28.70,SW,230,0.0,0.0,32,0.00,,BKN250,0.00,VWS V14.01,2013-11-20 07:00:00,
2013-11-20 01:15:00,48.0,20.3,28.70,SW,230,0.0,0.0,33,0.00,,OVC250,0.00,VWS V14.01,2013-11-20 07:15:00,
2013-11-20 01:30:00,48.0,20.3,28.70,SSW,207,0.0,0.0,33,0.00,,OVC250,0.00,VWS V14.01,2013-11-20 07:30:00,
2013-11-20 01:45:00,47.8,20.1,28.70,SW,231,0.0,0.0,33,0.00,,OVC250,0.00,VWS V14.01,2013-11-20 07:45:00,
2013-11-20 02:00:00,48.4,19.9,28.70,WSW,243,0.0,0.0,32,0.00,,OVC250,0.00,VWS V14.01,2013-11-20 08:00:00,
2013-11-20 02:15:00,47.7,20.0,28.70,SW,229,0.0,0.0,33,0.00,,OVC250,0.00,VWS V14.01,2013-11-20 08:15:00,
2013-11-20 02:30:00,47.3,19.7,28.70,WSW,240,0.0,0.0,33,0.00,,OVC250,0.00,VWS V14.01,2013-11-20 08:30:00,
2013-11-20 02:45:00,47.3,19.7,28.70,WSW,237,0.0,0.0,33,0.00,,OVC250,0.00,VWS V14.01,2013-11-20 08:45:00,
2013-11-20 03:00:00,47.5,19.8,28.70,SW,232,0.0,0.0,33,0.00,,BKN250,0.00,VWS V14.01,2013-11-20 09:00:00,
2013-11-20 03:15:00,47.7,20.0,28.70,SW,235,0.0,0.0,33,0.00,,BKN250,0.00,VWS V14.01,2013-11-20 09:15:00,
2013-11-20 03:30:00,47.8,20.1,28.70,WNW,282,0.0,0.0,33,0.00,,BKN250,0.00,VWS V14.01,2013-11-20 09:30:00,
2013-11-20 03:45:00,48.2,20.5,28.67,SSW,210,0.0,0.0,33,0.00,,BKN250,0.00,VWS V14.01,2013-11-20 09:45:00,
2013-11-20 04:00:00,48.2,20.5,28.67,SW,215,0.0,0.0,33,0.00,,BKN250,0.00,VWS V14.01,2013-11-20 10:00:00,
2013-11-20 04:15:00,48.0,21.0,28.67,SSW,202,0.0,0.0,34,0.00,,OVC250,0.00,VWS V14.01,2013-11-20 10:15:00,
2013-11-20 04:30:00,48.0,21.0,28.67,SW,232,0.0,0.0,34,0.00,,OVC250,0.00,VWS V14.01,2013-11-20 10:30:00,
2013-11-20 04:45:00,47.7,21.4,28.67,SSW,213,0.0,0.0,35,0.00,,OVC250,0.00,VWS V14.01,2013-11-20 10:45:00,
2013-11-20 05:00:00,47.5,21.9,28.67,SW,229,0.0,0.0,36,0.00,,OVC250,0.00,VWS V14.01,2013-11-20 11:00:00,
2013-11-20 05:15:00,47.1,22.2,28.64,SW,227,0.0,0.0,37,0.00,,OVC200,0.00,VWS V14.01,2013-11-20 11:15:00,
2013-11-20 05:30:00,46.8,22.5,28.64,SW,218,0.0,0.0,38,0.00,,OVC200,0.00,VWS V14.01,2013-11-20 11:30:00,
2013-11-20 05:45:00,46.4,22.8,28.64,SSW,210,0.0,0.0,39,0.00,,OVC200,0.00,VWS V14.01,2013-11-20 11:45:00,
2013-11-20 06:00:00,45.7,22.8,28.64,SW,231,0.0,0.0,40,0.00,,OVC200,0.00,VWS V14.01,2013-11-20 12:00:00,
2013-11-20 06:15:00,45.1,22.9,28.64,SW,217,0.0,0.0,41,0.00,,OVC200,0.00,VWS V14.01,2013-11-20 12:15:00,
2013-11-20 06:30:00,44.6,22.9,28.64,SW,225,0.0,0.0,42,0.00,,OVC200,0.00,VWS V14.01,2013-11-20 12:30:00,
2013-11-20 06:45:00,44.4,23.3,28.64,SW,233,0.0,0.0,43,0.00,,OVC200,0.00,VWS V14.01,2013-11-20 12:45:00,
2013-11-20 07:00:00,43.9,23.4,28.64,SW,235,0.0,0.0,44,0.00,,OVC200,0.00,VWS V14.01,2013-11-20 13:00:00,
2013-11-20 07:15:00,43.0,23.6,28.67,SW,225,0.0,0.0,46,0.00,,OVC250,0.00,VWS V14.01,2013-11-20 13:15:00,
2013-11-20 07:30:00,43.0,24.6,28.67,SW,229,0.0,0.0,48,0.00,,OVC250,0.00,VWS V14.01,2013-11-20 13:30:00,
2013-11-20 07:45:00,42.8,24.5,28.67,WSW,247,0.0,0.0,48,0.00,,OVC250,0.00,VWS V14.01,2013-11-20 13:45:00,
2013-11-20 08:00:00,42.8,25.0,28.67,SW,223,0.0,0.0,49,0.00,,OVC250,0.00,VWS V14.01,2013-11-20 14:00:00,
2013-11-20 08:15:00,43.2,25.3,28.67,SW,230,0.0,0.0,49,0.00,,BKN250,0.00,VWS V14.01,2013-11-20 14:15:00,
2013-11-20 08:30:00,43.5,25.6,28.67,South,184,0.0,0.0,49,0.00,,BKN250,0.00,VWS V14.01,2013-11-20 14:30:00,
2013-11-20 08:45:00,44.1,25.6,28.67,WSW,237,0.0,0.0,48,0.00,,BKN250,0.00,VWS V14.01,2013-11-20 14:45:00,
2013-11-20 09:00:00,44.1,25.6,28.67,SW,222,0.0,0.0,48,0.00,,BKN250,0.00,VWS V14.01,2013-11-20 15:00:00,
2013-11-20 09:15:00,44.4,26.0,28.67,SW,223,0.0,0.0,48,0.00,,BKN250,0.00,VWS V14.01,2013-11-20 15:15:00,
2013-11-20 09:30:00,45.1,25.6,28.67,SW,230,0.0,0.0,46,0.00,,BKN250,0.00,VWS V14.01,2013-11-20 15:30:00,
2013-11-20 09:45:00,46.2,25.5,28.67,SSW,210,0.0,0.0,44,0.00,,BKN250,0.00,VWS V14.01,2013-11-20 15:45:00,
2013-11-20 10:00:00,47.3,26.0,28.67,WSW,244,0.0,0.0,43,0.00,,BKN250,0.00,VWS V14.01,2013-11-20 16:00:00,
2013-11-20 10:15:00,48.6,26.0,28.67,WSW,240,0.0,0.0,41,0.00,,BKN250,0.00,VWS V14.01,2013-11-20 16:15:00,
2013-11-20 10:30:00,49.8,25.9,28.67,SW,235,0.0,0.0,39,0.00,,BKN250,0.00,VWS V14.01,2013-11-20 16:30:00,
2013-11-20 10:45:00,51.3,26.5,28.67,SW,218,0.0,0.0,38,0.00,,BKN250,0.00,VWS V14.01,2013-11-20 16:45:00,
2013-11-20 11:00:00,52.9,27.3,28.67,SW,227,0.0,0.0,37,0.00,,BKN250,0.00,VWS V14.01,2013-11-20 17:00:00,
2013-11-20 11:15:00,54.0,27.6,28.67,SW,224,0.0,2.7,36,0.00,,BKN250,0.00,VWS V14.01,2013-11-20 17:15:00,
2013-11-20 11:30:00,54.1,27.8,28.67,SW,219,0.0,0.0,36,0.00,,BKN250,0.00,VWS V14.01,2013-11-20 17:30:00,
2013-11-20 11:45:00,54.1,27.8,28.64,WSW,246,0.0,2.7,36,0.00,,BKN250,0.00,VWS V14.01,2013-11-20 17:45:00,
2013-11-20 12:00:00,54.3,28.0,28.64,WSW,245,0.0,0.0,36,0.00,,BKN250,0.00,VWS V14.01,2013-11-20 18:00:00,
2013-11-20 12:15:00,55.0,28.6,28.64,WSW,250,0.0,0.0,36,0.00,,BKN250,0.00,VWS V14.01,2013-11-20 18:15:00,
2013-11-20 12:30:00,55.2,28.1,28.64,SW,223,0.0,0.0,35,0.00,,BKN250,0.00,VWS V14.01,2013-11-20 18:30:00,
2013-11-20 12:45:00,54.9,27.8,28.64,SW,232,0.0,0.0,35,0.00,,BKN250,0.00,VWS V14.01,2013-11-20 18:45:00,
2013-11-20 13:00:00,55.2,28.1,28.64,SW,233,0.0,0.0,35,0.00,,BKN250,0.00,VWS V14.01,2013-11-20 19:00:00,
2013-11-20 13:15:00,54.9,27.8,28.64,SSW,213,0.0,0.0,35,0.00,,BKN250,0.00,VWS V14.01,2013-11-20 19:15:00,
2013-11-20 13:30:00,55.2,28.8,28.61,SW,233,0.0,0.0,36,0.00,,BKN250,0.00,VWS V14.01,2013-11-20 19:30:00,
2013-11-20 13:45:00,56.1,28.9,28.61,SW,223,0.0,0.0,35,0.00,,BKN250,0.00,VWS V14.01,2013-11-20 19:45:00,
2013-11-20 14:00:00,56.1,28.9,28.61,SW,232,0.0,0.0,35,0.00,,BKN250,0.00,VWS V14.01,2013-11-20 20:00:00,
2013-11-20 14:15:00,56.1,28.9,28.61,SW,227,0.0,0.0,35,0.00,,BKN250,0.00,VWS V14.01,2013-11-20 20:15:00,
2013-11-20 14:30:00,55.6,28.4,28.61,SW,227,0.0,0.0,35,0.00,,BKN250,0.00,VWS V14.01,2013-11-20 20:30:00,
2013-11-20 14:45:00,55.2,28.8,28.61,SW,217,0.0,0.0,36,0.00,,BKN250,0.00,VWS V14.01,2013-11-20 20:45:00,
2013-11-20 15:00:00,55.2,28.8,28.61,SW,217,0.0,0.0,36,0.00,,BKN250,0.00,VWS V14.01,2013-11-20 21:00:00,
2013-11-20 15:15:00,55.2,28.8,28.61,ENE,59,0.0,0.0,36,0.00,,SCT250,0.00,VWS V14.01,2013-11-20 21:15:00,
2013-11-20 15:30:00,55.6,28.4,28.61,WSW,249,0.0,0.0,35,0.00,,SCT250,0.00,VWS V14.01,2013-11-20 21:30:00,
2013-11-20 15:45:00,55.6,28.4,28.61,SW,234,0.0,0.0,35,0.00,,SCT250,0.00,VWS V14.01,2013-11-20 21:45:00,
2013-11-20 16:00:00,55.0,28.6,28.61,SSW,207,0.0,0.0,36,0.00,,SCT250,0.00,VWS V14.01,2013-11-20 22:00:00,
2013-11-20 16:15:00,54.7,28.3,28.61,SW,214,0.0,0.0,36,0.00,,SCT250,0.00,VWS V14.01,2013-11-20 22:15:00,
2013-11-20 16:30:00,54.3,28.0,28.61,SSE,166,0.0,0.0,36,0.00,,SCT250,0.00,VWS V14.01,2013-11-20 22:30:00,
2013-11-20 16:45:00,53.4,27.8,28.64,SSW,197,0.0,0.0,37,0.00,,SCT250,0.00,VWS V14.01,2013-11-20 22:45:00,
2013-11-20 17:00:00,52.3,26.9,28.64,South,188,0.0,0.0,37,0.00,,SCT250,0.00,VWS V14.01,2013-11-20 23:00:00,
2013-11-20 17:15:00,51.4,26.7,28.64,ESE,104,0.0,0.0,38,0.00,,FEW160,0.00,VWS V14.01,2013-11-20 23:15:00,
2013-11-20 17:30:00,50.9,26.8,28.64,ESE,106,0.0,0.0,39,0.00,,FEW160,0.00,VWS V14.01,2013-11-20 23:30:00,
2013-11-20 17:45:00,50.5,27.1,28.64,SW,230,0.0,0.0,40,0.00,,FEW160,0.00,VWS V14.01,2013-11-20 23:45:00,
2013-11-20 18:00:00,49.6,28.6,28.67,SW,227,0.0,0.0,44,0.00,,FEW160,0.00,VWS V14.01,2013-11-21 00:00:00,
2013-11-20 18:15:00,48.7,29.4,28.67,SSW,194,0.0,0.0,47,0.00,,CLR,0.00,VWS V14.01,2013-11-21 00:15:00,
2013-11-20 18:30:00,48.0,29.3,28.67,SSW,203,0.0,0.0,48,0.00,,CLR,0.00,VWS V14.01,2013-11-21 00:30:00,
2013-11-20 18:45:00,47.5,29.8,28.67,South,187,0.0,0.0,50,0.00,,CLR,0.00,VWS V14.01,2013-11-21 00:45:00,
2013-11-20 19:00:00,47.1,29.9,28.67,WSW,237,0.0,0.0,51,0.00,,CLR,0.00,VWS V14.01,2013-11-21 01:00:00,
2013-11-20 19:15:00,46.4,29.8,28.67,SSW,212,0.0,0.0,52,0.00,,CLR,0.00,VWS V14.01,2013-11-21 01:15:00,
2013-11-20 19:30:00,45.3,29.7,28.70,SSW,196,0.0,0.0,54,0.00,,CLR,0.00,VWS V14.01,2013-11-21 01:30:00,
2013-11-20 19:45:00,44.6,29.9,28.70,SW,223,0.0,0.0,56,0.00,,CLR,0.00,VWS V14.01,2013-11-21 01:45:00,
2013-11-20 20:00:00,43.7,29.9,28.70,SE,126,0.0,0.0,58,0.00,,CLR,0.00,VWS V14.01,2013-11-21 02:00:00,
2013-11-20 20:15:00,43.3,30.4,28.70,SW,236,0.0,0.0,60,0.00,,CLR,0.00,VWS V14.01,2013-11-21 02:15:00,
2013-11-20 20:30:00,43.0,30.5,28.70,SSW,211,0.0,0.0,61,0.00,,CLR,0.00,VWS V14.01,2013-11-21 02:30:00,
2013-11-20 20:45:00,42.6,30.5,28.70,WSW,237,0.0,0.0,62,0.00,,CLR,0.00,VWS V14.01,2013-11-21 02:45:00,
2013-11-20 21:00:00,42.3,30.6,28.70,SW,218,0.0,0.0,63,0.00,,CLR,0.00,VWS V14.01,2013-11-21 03:00:00,
2013-11-20 21:15:00,41.9,30.6,28.73,SW,223,0.0,0.0,64,0.00,,SCT250,0.00,VWS V14.01,2013-11-21 03:15:00,
2013-11-20 21:30:00,41.5,30.7,28.73,SW,218,0.0,0.0,65,0.00,,SCT250,0.00,VWS V14.01,2013-11-21 03:30:00,
2013-11-20 21:45:00,41.2,30.7,28.73,ESE,106,0.0,0.0,66,0.00,,SCT250,0.00,VWS V14.01,2013-11-21 03:45:00,
2013-11-20 22:00:00,41.0,30.9,28.73,SE,131,0.0,0.0,67,0.00,,SCT250,0.00,VWS V14.01,2013-11-21 04:00:00,
2013-11-20 22:15:00,40.5,30.8,28.73,South,174,0.0,0.0,68,0.00,,SCT250,0.00,VWS V14.01,2013-11-21 04:15:00,
2013-11-20 22:30:00,40.3,31.3,28.76,SSW,192,0.0,0.0,70,0.00,,SCT250,0.00,VWS V14.01,2013-11-21 04:30:00,
2013-11-20 22:45:00,40.1,31.5,28.76,SSE,152,0.0,0.0,71,0.00,,SCT250,0.00,VWS V14.01,2013-11-21 04:45:00,
2013-11-20 23:00:00,39.7,31.1,28.76,SSW,206,0.0,0.0,71,0.00,,SCT250,0.00,VWS V14.01,2013-11-21 05:00:00,
2013-11-20 23:15:00,39.6,31.3,28.76,SSW,192,0.0,0.0,72,0.00,,BKN250,0.00,VWS V14.01,2013-11-21 05:15:00,
2013-11-20 23:30:00,39.2,31.0,28.76,South,191,0.0,0.0,72,0.00,,BKN250,0.00,VWS V14.01,2013-11-21 05:30:00,
2013-11-20 23:45:00,39.0,31.1,28.76,South,189,0.0,0.0,73,0.00,,BKN250,0.00,VWS V14.01,2013-11-21 05:45:00,